�N����,����,�~����,�C��,���x,�C��,����,���ϕ���,�ő�u�ԕ���,�ő厞����,���˗�,�I�_���x,�n�����x,�ő啗���N��,DTYPE
"18/11/04","00:10",0.0,11.4,84.5,1017.5,314.4,3.1,4.3,337.4,0.00,8.9,14.3,"00:00:50",1
"18/11/04","00:20",0.0,11.0,84.0,1017.5,299.4,2.2,3.7,309.7,0.00,8.4,14.2,"00:16:38",1
"18/11/04","00:30",0.0,11.0,84.8,1017.8,311.9,2.6,4.0,335.7,0.00,8.6,14.3,"00:25:22",1
"18/11/04","00:40",0.0,11.3,84.5,1017.5,325.1,3.4,4.4,325.5,0.00,8.8,14.3,"00:37:08",1
"18/11/04","00:50",0.0,11.5,84.3,1017.5,325.7,3.7,6.8,332.3,0.00,9.0,14.2,"00:43:20",1
"18/11/04","01:00",0.0,11.5,84.1,1017.5,326.2,3.2,4.3,342.2,0.00,9.0,14.1,"00:57:08",1
"18/11/04","01:10",0.0,11.4,84.4,1017.5,329.3,2.8,4.2,326.5,0.00,8.9,14.2,"01:08:16",1
"18/11/04","01:20",0.0,11.6,84.3,1018.0,329.8,3.4,4.9,328.8,0.00,9.1,14.2,"01:16:04",1
"18/11/04","01:30",0.0,11.6,84.3,1017.5,332.1,2.7,5.1,346.4,0.00,9.1,14.2,"01:21:52",1
"18/11/04","01:40",0.0,11.7,84.8,1017.1,332.6,2.2,4.5,333.3,0.00,9.3,14.3,"01:38:30",1
"18/11/04","01:50",0.0,11.8,84.9,1017.5,328.2,2.8,5.1,337.8,0.00,9.4,14.2,"01:45:40",1
"18/11/04","02:00",0.0,11.8,84.6,1017.3,324.4,3.0,4.7,336.4,0.00,9.3,14.1,"01:59:34",1
"18/11/04","02:10",0.0,11.8,84.7,1017.3,333.4,2.6,4.1,337.2,0.00,9.4,14.2,"02:01:30",1
"18/11/04","02:20",0.0,11.8,84.9,1016.8,331.0,2.2,3.5,335.2,0.00,9.4,14.1,"02:16:08",1
"18/11/04","02:30",0.0,12.0,84.8,1017.3,317.5,2.7,4.8,338.1,0.00,9.6,14.2,"02:27:42",1
"18/11/04","02:40",0.0,12.0,84.5,1017.3,327.3,3.4,5.8,327.6,0.00,9.5,14.1,"02:34:40",1
"18/11/04","02:50",0.0,12.0,84.6,1017.3,327.8,2.2,3.5,327.6,0.00,9.5,14.2,"02:40:34",1
"18/11/04","03:00",0.0,11.9,84.8,1016.8,330.4,2.6,5.1,339.6,0.00,9.5,14.3,"02:57:24",1
"18/11/04","03:10",0.0,12.0,84.9,1017.1,331.9,2.8,5.1,339.7,0.00,9.6,14.3,"03:00:40",1
"18/11/04","03:20",0.0,11.9,84.8,1016.6,329.1,3.1,5.5,336.8,0.00,9.5,14.2,"03:16:58",1
"18/11/04","03:30",0.0,11.9,84.7,1016.6,327.4,2.5,4.1,329.4,0.00,9.4,14.4,"03:29:46",1
"18/11/04","03:40",0.0,12.0,84.8,1016.4,332.0,2.7,5.0,338.3,0.00,9.6,14.3,"03:30:40",1
"18/11/04","03:50",0.0,12.0,84.7,1016.6,332.3,2.3,4.0,324.1,0.00,9.5,14.4,"03:49:14",1
"18/11/04","04:00",0.0,12.1,84.3,1016.6,325.9,2.1,3.7,328.1,0.00,9.6,14.5,"03:51:06",1
"18/11/04","04:10",0.0,12.1,84.0,1016.4,327.9,2.1,3.6,327.6,0.00,9.5,14.1,"04:06:42",1
"18/11/04","04:20",0.0,12.1,84.1,1016.6,321.3,1.8,3.6,337.5,0.00,9.5,14.4,"04:17:52",1
"18/11/04","04:30",0.0,12.1,84.0,1016.8,317.2,2.2,3.7,335.3,0.00,9.5,14.2,"04:24:58",1
"18/11/04","04:40",0.0,12.1,84.1,1016.6,324.0,2.2,4.1,332.4,0.00,9.5,14.3,"04:39:12",1
"18/11/04","04:50",0.0,12.1,84.2,1016.4,331.7,2.3,3.9,336.6,0.00,9.6,14.3,"04:43:28",1
"18/11/04","05:00",0.0,12.1,84.3,1016.4,330.3,2.3,3.5,348.2,0.00,9.6,14.4,"04:53:10",1
"18/11/04","05:10",0.0,12.2,84.3,1016.1,333.8,2.3,3.5,336.7,0.00,9.7,14.3,"05:00:08",1
"18/11/04","05:20",0.0,12.2,84.2,1016.1,334.8,2.3,4.5,345.2,0.00,9.7,14.4,"05:16:02",1
"18/11/04","05:30",0.0,12.1,84.1,1016.4,325.4,2.5,4.1,307.2,0.00,9.5,14.2,"05:26:50",1
"18/11/04","05:40",0.0,12.2,83.9,1016.4,326.1,2.5,4.7,332.5,0.00,9.6,14.4,"05:37:38",1
"18/11/04","05:50",0.0,12.3,83.9,1016.4,330.0,2.1,3.5,332.3,0.00,9.7,14.3,"05:40:10",1
"18/11/04","06:00",0.0,12.3,83.9,1016.1,318.9,1.6,2.9,334.4,0.00,9.7,14.3,"05:59:02",1
"18/11/04","06:10",0.0,12.3,84.1,1016.4,310.8,1.8,3.1,325.1,0.00,9.7,14.3,"06:00:56",1
"18/11/04","06:20",0.0,12.2,84.4,1016.6,306.5,1.7,3.6,341.2,0.00,9.7,14.3,"06:19:26",1
"18/11/04","06:30",0.0,12.2,84.8,1016.1,306.5,1.7,2.6,326.7,0.00,9.8,14.2,"06:24:34",1
"18/11/04","06:40",0.0,12.2,85.1,1016.4,282.1,1.1,1.8,297.5,0.00,9.8,14.3,"06:30:08",1
"18/11/04","06:50",0.0,12.2,85.5,1016.6,293.5,1.2,1.9,291.5,0.00,9.9,14.3,"06:44:18",1
"18/11/04","07:00",0.0,12.2,85.9,1016.1,316.9,2.2,3.6,328.1,0.00,10.0,14.4,"06:59:08",1
"18/11/04","07:10",0.0,12.3,86.0,1016.1,302.4,1.7,3.9,335.2,0.00,10.1,14.4,"07:02:48",1
"18/11/04","07:20",0.0,12.3,86.1,1016.1,285.2,1.2,2.1,289.7,0.00,10.1,14.4,"07:18:40",1
"18/11/04","07:30",0.0,12.3,86.3,1016.4,323.0,2.5,4.3,326.9,0.00,10.1,14.3,"07:25:22",1
"18/11/04","07:40",0.0,12.4,86.4,1016.4,325.2,2.3,3.7,328.7,0.00,10.2,14.3,"07:38:20",1
"18/11/04","07:50",0.0,12.5,86.4,1016.1,311.1,1.7,3.1,341.8,0.00,10.3,14.4,"07:48:32",1
"18/11/04","08:00",0.0,12.6,86.3,1015.9,321.1,1.8,4.1,336.8,0.00,10.4,14.4,"07:50:48",1
"18/11/04","08:10",0.0,12.8,86.1,1016.4,279.7,1.5,3.3,333.2,0.01,10.6,14.5,"08:01:44",1
"18/11/04","08:20",0.0,13.0,86.2,1016.6,275.6,1.6,3.7,319.5,0.00,10.8,14.4,"08:13:36",1
"18/11/04","08:30",0.0,13.1,86.3,1016.8,281.4,1.6,3.3,330.5,0.00,10.9,14.6,"08:29:44",1
"18/11/04","08:40",0.0,13.3,86.2,1016.8,299.2,1.7,2.9,339.3,0.01,11.1,14.7,"08:30:32",1
"18/11/04","08:50",0.0,13.6,86.3,1017.3,292.1,1.5,4.2,315.5,0.01,11.4,14.5,"08:48:00",1
"18/11/04","09:00",0.0,13.5,85.9,1017.1,322.3,2.8,4.1,327.1,0.02,11.2,14.4,"08:57:36",1
"18/11/04","09:10",0.0,13.5,86.2,1017.5,333.5,2.6,4.2,336.8,0.02,11.3,14.6,"09:02:40",1
"18/11/04","09:20",0.0,13.5,85.6,1017.1,332.7,2.6,4.4,345.7,0.03,11.2,14.7,"09:19:12",1
"18/11/04","09:30",0.0,13.3,86.8,1017.1,333.5,2.5,4.7,334.5,0.03,11.2,14.7,"09:20:16",1
"18/11/04","09:40",0.0,13.2,88.4,1016.8,327.8,2.3,3.4,339.4,0.06,11.4,14.8,"09:30:08",1
"18/11/04","09:50",0.0,13.3,90.3,1016.6,329.6,2.3,3.5,338.6,0.13,11.8,14.6,"09:44:24",1
"18/11/04","10:00",0.0,14.1,90.7,1016.6,311.5,1.8,3.2,329.8,0.19,12.6,14.8,"09:51:20",1
"18/11/04","10:10",0.0,14.1,90.8,1016.6,276.3,1.2,2.1,257.7,0.15,12.7,15.0,"10:00:08",1
"18/11/04","10:20",0.0,14.2,90.2,1016.6,300.8,1.6,2.6,311.9,0.15,12.7,14.9,"10:16:28",1
"18/11/04","10:30",0.0,14.0,89.5,1016.6,311.4,2.2,4.3,314.7,0.14,12.3,15.1,"10:20:56",1
"18/11/04","10:40",0.0,13.7,88.8,1016.4,321.3,3.0,5.7,336.8,0.15,11.9,15.3,"10:37:10",1
"18/11/04","10:50",0.0,14.4,88.2,1016.4,325.1,2.7,4.9,344.6,0.18,12.5,15.5,"10:47:36",1
"18/11/04","11:00",0.0,15.3,86.5,1016.6,319.7,2.8,6.0,320.6,0.34,13.1,15.7,"10:51:36",1
"18/11/04","11:10",0.0,15.2,84.3,1016.1,304.7,1.8,3.9,331.0,0.19,12.6,15.7,"11:09:52",1
"18/11/04","11:20",0.0,15.6,84.7,1015.9,314.1,2.2,5.1,344.9,0.21,13.1,15.8,"11:19:36",1
"18/11/04","11:30",0.0,15.9,83.5,1015.9,317.9,2.3,4.8,339.0,0.27,13.2,15.7,"11:24:24",1
"18/11/04","11:40",0.0,15.8,82.6,1016.1,324.5,2.3,4.8,334.1,0.17,12.9,16.0,"11:33:44",1
"18/11/04","11:50",0.0,15.9,83.1,1015.4,332.8,2.3,4.7,333.1,0.16,13.1,16.1,"11:41:36",1
"18/11/04","12:00",0.0,16.5,82.0,1015.4,334.1,2.1,3.5,332.2,0.22,13.5,16.3,"11:55:28",1
"18/11/04","12:10",0.0,16.5,81.7,1015.4,331.8,2.7,4.5,340.3,0.29,13.4,16.4,"12:06:24",1
"18/11/04","12:20",0.0,16.5,81.6,1015.2,333.2,2.1,4.4,341.7,0.18,13.4,16.6,"12:18:08",1
"18/11/04","12:30",0.0,16.7,81.4,1014.5,327.1,2.1,4.8,335.9,0.17,13.5,16.5,"12:24:40",1
"18/11/04","12:40",0.0,16.6,82.1,1014.2,328.9,2.3,4.7,344.0,0.14,13.6,16.7,"12:33:52",1
"18/11/04","12:50",0.0,16.5,81.7,1014.5,329.7,1.8,3.2,329.7,0.13,13.4,16.6,"12:48:40",1
"18/11/04","13:00",0.0,16.8,81.6,1014.5,332.3,2.2,4.3,342.2,0.11,13.7,16.7,"12:51:04",1
"18/11/04","13:10",0.0,16.9,81.7,1014.0,327.0,2.1,4.2,335.0,0.09,13.8,16.7,"13:07:20",1
"18/11/04","13:20",0.0,16.8,81.1,1014.0,323.1,1.8,3.9,330.7,0.09,13.6,17.0,"13:12:00",1
"18/11/04","13:30",0.0,16.5,83.0,1014.2,325.4,2.1,4.0,343.2,0.11,13.6,17.0,"13:26:48",1
"18/11/04","13:40",0.0,16.5,81.5,1014.2,322.1,2.1,3.9,338.0,0.07,13.4,17.0,"13:35:04",1
"18/11/04","13:50",0.0,16.8,82.1,1013.8,310.1,1.6,3.3,335.4,0.14,13.8,16.7,"13:42:56",1
"18/11/04","14:00",0.0,17.2,81.0,1013.8,303.8,1.7,4.0,319.2,0.14,14.0,17.2,"13:54:56",1
"18/11/04","14:10",0.0,17.6,79.4,1014.0,312.1,1.7,4.2,351.7,0.21,14.0,16.8,"14:00:02",1
"18/11/04","14:20",0.0,17.6,80.5,1013.8,293.1,1.8,4.1,324.3,0.20,14.2,17.2,"14:10:16",1
"18/11/04","14:30",0.0,17.7,79.2,1014.0,300.6,2.0,4.7,336.9,0.19,14.1,17.2,"14:29:44",1
"18/11/04","14:40",0.0,17.9,79.8,1014.2,301.0,1.7,3.2,334.9,0.16,14.4,17.3,"14:35:36",1
"18/11/04","14:50",0.0,17.4,80.7,1013.8,305.3,1.7,3.5,341.4,0.10,14.1,17.2,"14:40:48",1
"18/11/04","15:00",0.0,17.8,80.5,1013.8,307.5,2.0,3.3,324.9,0.14,14.4,17.4,"14:52:32",1
"18/11/04","15:10",0.0,17.9,79.1,1013.8,319.6,2.0,3.5,340.1,0.09,14.3,17.6,"15:01:12",1
"18/11/04","15:20",0.0,17.6,81.2,1013.8,302.2,1.3,3.3,345.0,0.09,14.4,17.4,"15:12:24",1
"18/11/04","15:30",0.0,17.6,81.1,1013.8,311.0,1.6,3.3,332.8,0.10,14.4,17.4,"15:29:04",1
"18/11/04","15:40",0.0,17.9,80.8,1013.8,289.5,1.6,2.6,273.2,0.13,14.6,17.5,"15:31:44",1
"18/11/04","15:50",0.0,18.1,80.7,1013.8,315.1,1.7,3.3,326.6,0.11,14.8,17.7,"15:45:44",1
"18/11/04","16:00",0.0,18.2,78.8,1013.5,311.7,2.0,4.1,327.3,0.12,14.5,17.7,"15:56:08",1
"18/11/04","16:10",0.0,18.3,76.9,1013.5,309.7,1.8,3.7,330.5,0.07,14.2,17.6,"16:07:28",1
"18/11/04","16:20",0.0,18.2,77.5,1013.8,298.3,1.5,2.6,314.6,0.05,14.2,17.6,"16:19:28",1
"18/11/04","16:30",0.0,17.7,77.7,1013.8,329.2,2.7,4.0,321.2,0.03,13.8,17.6,"16:27:44",1
"18/11/04","16:40",0.0,17.3,78.9,1014.0,334.5,3.0,6.2,315.2,0.02,13.6,17.4,"16:38:16",1
"18/11/04","16:50",0.0,16.9,80.0,1014.0,338.1,2.8,4.3,334.3,0.00,13.5,17.4,"16:42:16",1
"18/11/04","17:00",0.0,16.6,81.0,1014.2,333.1,2.1,4.0,337.6,0.00,13.4,17.2,"16:55:12",1
"18/11/04","17:10",0.0,16.3,82.1,1014.2,332.1,1.7,3.2,344.8,0.00,13.3,17.2,"17:00:24",1
"18/11/04","17:20",0.0,16.1,82.7,1014.2,316.9,1.7,2.9,343.1,0.00,13.2,17.2,"17:10:08",1
"18/11/04","17:30",0.0,16.0,83.9,1014.2,300.5,1.3,3.4,346.0,0.00,13.3,17.0,"17:23:28",1
"18/11/04","17:40",0.0,15.8,84.6,1014.2,298.4,1.3,2.4,330.7,0.00,13.3,17.0,"17:30:02",1
"18/11/04","17:50",0.0,15.8,85.0,1014.2,285.9,1.3,2.5,337.4,0.00,13.3,16.9,"17:40:32",1
"18/11/04","18:00",0.0,15.8,85.3,1014.5,326.6,1.7,2.9,327.2,0.00,13.4,16.7,"17:55:04",1
"18/11/04","18:10",0.0,15.7,85.4,1014.7,326.9,1.8,3.3,326.5,0.00,13.3,16.8,"18:05:20",1
"18/11/04","18:20",0.0,15.7,85.6,1014.9,312.6,1.7,3.1,315.5,0.00,13.3,16.6,"18:17:12",1
"18/11/04","18:30",0.0,15.7,85.5,1015.2,311.2,1.6,2.2,328.9,0.00,13.3,16.9,"18:26:40",1
"18/11/04","18:40",0.0,15.8,85.7,1014.9,307.6,1.1,2.0,341.2,0.00,13.5,16.6,"18:36:08",1
"18/11/04","18:50",0.0,15.8,85.4,1014.9,314.7,1.3,2.2,318.3,0.00,13.4,16.6,"18:46:24",1
"18/11/04","19:00",0.0,15.6,85.7,1015.4,302.3,1.3,2.1,310.0,0.00,13.3,16.4,"18:55:12",1
"18/11/04","19:10",0.0,15.6,86.1,1015.4,317.0,1.3,2.1,330.8,0.00,13.3,16.7,"19:06:32",1
"18/11/04","19:20",0.0,15.5,86.3,1015.6,287.2,1.1,1.7,284.8,0.00,13.3,16.3,"19:15:04",1
"18/11/04","19:30",0.0,15.3,86.7,1015.9,292.7,1.2,2.7,337.5,0.00,13.1,16.4,"19:28:40",1
"18/11/04","19:40",0.0,15.2,86.9,1015.6,284.7,1.1,1.9,319.3,0.00,13.1,16.5,"19:31:28",1
"18/11/04","19:50",0.0,15.2,87.5,1015.9,317.1,1.8,3.4,332.6,0.00,13.2,16.2,"19:49:04",1
"18/11/04","20:00",0.0,15.3,87.0,1015.6,322.6,1.8,2.7,336.7,0.00,13.2,16.3,"19:59:28",1
"18/11/04","20:10",0.0,15.3,86.9,1016.1,327.7,2.3,3.6,327.3,0.00,13.2,16.4,"20:06:24",1
"18/11/04","20:20",0.0,15.2,86.6,1015.6,309.3,1.8,3.7,338.7,0.00,13.0,16.3,"20:12:40",1
"18/11/04","20:30",0.0,15.0,87.0,1015.9,300.9,1.3,2.0,298.2,0.00,12.9,16.2,"20:23:04",1
"18/11/04","20:40",0.0,14.9,87.6,1015.6,314.8,1.7,2.9,336.7,0.00,12.9,16.2,"20:39:28",1
"18/11/04","20:50",0.0,14.8,88.0,1015.6,325.1,2.0,2.7,321.1,0.00,12.9,16.0,"20:48:16",1
"18/11/04","21:00",0.0,14.8,88.4,1016.1,328.3,2.3,3.3,328.9,0.00,12.9,16.0,"20:59:04",1
"18/11/04","21:10",0.0,14.8,88.2,1015.9,327.4,2.7,4.4,336.3,0.00,12.9,16.0,"21:03:44",1
"18/11/04","21:20",0.0,14.8,88.3,1015.6,326.1,2.6,4.1,342.1,0.00,12.9,16.1,"21:12:40",1
"18/11/04","21:30",0.0,14.9,88.2,1015.9,326.8,2.5,4.2,327.1,0.00,13.0,15.9,"21:24:56",1
"18/11/04","21:40",0.0,14.8,88.2,1016.1,331.0,2.3,4.3,338.8,0.00,12.9,15.9,"21:35:28",1
"18/11/04","21:50",0.0,14.6,88.5,1016.1,329.3,2.2,3.6,339.1,0.00,12.8,16.0,"21:47:46",1
"18/11/04","22:00",0.0,14.4,88.7,1016.1,329.5,2.3,3.5,331.4,0.00,12.6,15.7,"21:52:32",1
"18/11/04","22:10",0.0,14.2,89.3,1016.1,335.5,2.1,3.3,337.0,0.00,12.5,16.0,"22:02:24",1
"18/11/04","22:20",0.0,14.0,89.7,1016.1,330.0,2.2,3.4,333.3,0.00,12.4,15.9,"22:10:02",1
"18/11/04","22:30",0.0,13.8,90.0,1016.4,325.6,2.7,3.5,337.3,0.00,12.2,15.7,"22:25:52",1
"18/11/04","22:40",0.0,13.6,90.5,1016.1,328.6,2.2,3.1,318.6,0.00,12.1,15.8,"22:30:48",1
"18/11/04","22:50",0.0,13.5,90.9,1016.4,335.6,2.3,3.4,336.9,0.00,12.1,15.7,"22:48:40",1
"18/11/04","23:00",0.0,13.4,91.2,1015.9,332.2,2.6,4.9,332.3,0.00,12.0,15.6,"22:50:16",1
"18/11/04","23:10",0.0,13.4,91.5,1015.6,328.3,2.8,4.5,319.3,0.00,12.1,15.6,"23:07:20",1
"18/11/04","23:20",0.0,13.3,91.4,1016.1,324.5,2.8,4.2,335.7,0.00,12.0,15.7,"23:10:16",1
"18/11/04","23:30",0.0,13.2,91.7,1015.9,329.8,2.5,3.9,317.2,0.00,11.9,15.4,"23:25:44",1
"18/11/04","23:40",0.0,13.2,92.0,1015.9,327.8,3.0,4.5,333.6,0.00,12.0,15.5,"23:38:08",1
"18/11/04","23:50",0.0,13.1,92.0,1015.9,330.0,2.5,4.7,333.0,0.00,11.9,15.2,"23:41:12",1
"18/11/04","24:00",0.0,13.1,92.3,1015.6,332.0,2.3,3.9,336.0,0.00,11.9,15.4,"23:55:44",1
